Time,TemperatureF,DewpointF,PressureIn,WindDirection,WindDirectionDegrees,WindSpeedMPH,WindSpeedGustMPH,Humidity,HourlyPrecipIn,Conditions,Clouds,dailyrainin,SoftwareType,DateUTC
2013-04-12 00:03:00,40.0,33.0,29.71,West,273,8.0,21.0,75,0.00,,,0.45,,2013-04-12 05:03:00,
2013-04-12 00:12:00,40.0,33.0,29.71,West,273,8.0,21.0,75,0.00,,,0.45,,2013-04-12 05:12:00,
2013-04-12 00:23:00,40.0,33.0,29.71,West,273,8.0,21.0,75,0.00,,,0.45,,2013-04-12 05:23:00,
2013-04-12 00:32:00,39.0,32.0,29.71,WNW,286,6.0,17.0,75,0.00,,,0.16,,2013-04-12 05:32:00,
2013-04-12 00:42:00,39.0,32.0,29.71,WNW,286,6.0,17.0,75,0.00,,,0.16,,2013-04-12 05:42:00,
2013-04-12 00:52:00,39.0,32.0,29.71,WNW,286,6.0,17.0,75,0.00,,,0.16,,2013-04-12 05:52:00,
2013-04-12 01:02:00,39.0,30.0,29.71,West,270,4.0,10.0,70,0.00,,,0.16,,2013-04-12 06:02:00,
2013-04-12 01:12:00,39.0,30.0,29.71,West,270,4.0,10.0,70,0.00,,,0.16,,2013-04-12 06:12:00,
2013-04-12 01:22:00,39.0,30.0,29.71,West,270,4.0,10.0,70,0.00,,,0.16,,2013-04-12 06:22:00,
2013-04-12 01:32:00,39.0,30.0,29.71,West,270,5.0,10.0,70,0.00,,,0.03,,2013-04-12 06:32:00,
2013-04-12 01:42:00,39.0,30.0,29.71,West,270,5.0,10.0,70,0.00,,,0.03,,2013-04-12 06:42:00,
2013-04-12 01:52:00,39.0,30.0,29.71,West,270,5.0,10.0,70,0.00,,,0.03,,2013-04-12 06:52:00,
2013-04-12 02:01:00,38.0,30.0,29.70,WSW,243,3.0,9.0,73,0.00,,,0.03,,2013-04-12 07:01:00,
2013-04-12 02:11:00,38.0,30.0,29.70,WSW,243,3.0,9.0,73,0.00,,,0.03,,2013-04-12 07:11:00,
2013-04-12 02:22:00,38.0,30.0,29.70,WSW,243,3.0,9.0,73,0.00,,,0.03,,2013-04-12 07:22:00,
2013-04-12 02:32:00,37.0,30.0,29.70,SW,225,3.0,8.0,76,0.00,,,0.03,,2013-04-12 07:32:00,
2013-04-12 02:42:00,37.0,30.0,29.70,SW,225,3.0,8.0,76,0.00,,,0.03,,2013-04-12 07:42:00,
2013-04-12 02:52:00,37.0,30.0,29.70,SW,225,3.0,8.0,76,0.00,,,0.03,,2013-04-12 07:52:00,
2013-04-12 03:03:00,36.0,29.0,29.70,SW,229,2.0,6.0,77,0.00,,,0.03,,2013-04-12 08:03:00,
2013-04-12 03:12:00,36.0,29.0,29.70,SW,229,2.0,6.0,77,0.00,,,0.03,,2013-04-12 08:12:00,
2013-04-12 03:22:00,36.0,29.0,29.70,SW,229,2.0,6.0,77,0.00,,,0.03,,2013-04-12 08:22:00,
2013-04-12 03:32:00,36.0,30.0,29.69,SW,220,3.0,7.0,79,0.00,,,0.03,,2013-04-12 08:32:00,
2013-04-12 03:43:00,36.0,30.0,29.69,SW,220,3.0,7.0,79,0.00,,,0.03,,2013-04-12 08:43:00,
2013-04-12 03:52:00,36.0,30.0,29.69,SW,220,3.0,7.0,79,0.00,,,0.03,,2013-04-12 08:52:00,
2013-04-12 04:02:00,37.0,31.0,29.69,SW,220,3.0,7.0,79,0.00,,,0.03,,2013-04-12 09:02:00,
2013-04-12 04:12:00,37.0,31.0,29.69,SW,220,3.0,7.0,79,0.00,,,0.03,,2013-04-12 09:12:00,
2013-04-12 04:22:00,37.0,31.0,29.69,SW,220,3.0,7.0,79,0.00,,,0.03,,2013-04-12 09:22:00,
2013-04-12 04:33:00,37.0,31.0,29.68,SW,229,3.0,8.0,79,0.00,,,0.03,,2013-04-12 09:33:00,
2013-04-12 04:44:00,37.0,31.0,29.68,SW,229,3.0,8.0,79,0.00,,,0.03,,2013-04-12 09:44:00,
2013-04-12 04:53:00,37.0,31.0,29.68,SW,229,3.0,8.0,79,0.00,,,0.03,,2013-04-12 09:53:00,
2013-04-12 05:03:00,37.0,31.0,29.68,SW,229,3.0,8.0,79,0.00,,,0.03,,2013-04-12 10:03:00,
2013-04-12 05:12:00,38.0,31.0,29.69,SW,226,3.0,8.0,77,0.00,,,0.03,,2013-04-12 10:12:00,
2013-04-12 05:23:00,38.0,31.0,29.69,SW,226,3.0,8.0,77,0.00,,,0.03,,2013-04-12 10:23:00,
2013-04-12 05:34:00,39.0,32.0,29.69,SW,232,5.0,11.0,76,0.00,,,0.03,,2013-04-12 10:34:00,
2013-04-12 05:42:00,39.0,32.0,29.69,SW,232,5.0,11.0,76,0.00,,,0.03,,2013-04-12 10:42:00,
2013-04-12 05:53:00,39.0,32.0,29.69,SW,232,5.0,11.0,76,0.00,,,0.03,,2013-04-12 10:53:00,
2013-04-12 06:02:00,39.0,32.0,29.70,SW,220,5.0,10.0,76,0.00,,,0.03,,2013-04-12 11:02:00,
2013-04-12 06:13:00,39.0,32.0,29.70,SW,220,5.0,10.0,76,0.00,,,0.03,,2013-04-12 11:13:00,
2013-04-12 06:22:00,39.0,32.0,29.70,SW,220,5.0,10.0,76,0.00,,,0.03,,2013-04-12 11:22:00,
2013-04-12 06:32:00,39.0,32.0,29.70,SW,234,4.0,10.0,77,0.00,,,0.02,,2013-04-12 11:32:00,
2013-04-12 06:43:00,39.0,32.0,29.70,SW,234,4.0,10.0,77,0.00,,,0.02,,2013-04-12 11:43:00,
2013-04-12 06:52:00,39.0,32.0,29.70,SW,234,4.0,10.0,77,0.00,,,0.02,,2013-04-12 11:52:00,
2013-04-12 07:02:00,39.0,32.0,29.71,SW,219,4.0,11.0,77,0.00,,,0.02,,2013-04-12 12:02:00,
2013-04-12 07:13:00,39.0,32.0,29.71,SW,219,4.0,11.0,77,0.00,,,0.02,,2013-04-12 12:13:00,
2013-04-12 07:22:00,39.0,32.0,29.71,SW,219,4.0,11.0,77,0.00,,,0.02,,2013-04-12 12:22:00,
2013-04-12 07:33:00,39.0,32.0,29.71,SW,219,4.0,11.0,77,0.00,,,0.02,,2013-04-12 12:33:00,
2013-04-12 07:53:00,39.0,32.0,29.73,SW,218,6.0,10.0,75,0.00,,,0.01,,2013-04-12 12:53:00,
2013-04-12 08:03:00,39.0,32.0,29.73,SW,218,6.0,10.0,75,0.00,,,0.01,,2013-04-12 13:03:00,
2013-04-12 08:12:00,39.0,32.0,29.73,SW,218,6.0,10.0,75,0.00,,,0.01,,2013-04-12 13:12:00,
2013-04-12 08:22:00,40.0,32.0,29.73,SW,227,3.0,15.0,74,0.00,,,0.01,,2013-04-12 13:22:00,
2013-04-12 08:32:00,40.0,32.0,29.73,SW,227,3.0,15.0,74,0.00,,,0.01,,2013-04-12 13:32:00,
2013-04-12 08:43:00,40.0,32.0,29.73,SW,227,3.0,15.0,74,0.00,,,0.01,,2013-04-12 13:43:00,
2013-04-12 08:53:00,41.0,33.0,29.74,WSW,237,6.0,13.0,72,0.00,,,0.01,,2013-04-12 13:53:00,
2013-04-12 09:03:00,41.0,33.0,29.74,WSW,237,6.0,13.0,72,0.00,,,0.01,,2013-04-12 14:03:00,
2013-04-12 09:13:00,41.0,33.0,29.74,WSW,237,6.0,13.0,72,0.00,,,0.01,,2013-04-12 14:13:00,
2013-04-12 09:22:00,41.0,32.0,29.74,SW,233,8.0,17.0,71,0.00,,,0.01,,2013-04-12 14:22:00,
2013-04-12 09:32:00,41.0,32.0,29.74,SW,233,8.0,17.0,71,0.00,,,0.01,,2013-04-12 14:32:00,
2013-04-12 09:43:00,41.0,32.0,29.74,SW,233,8.0,17.0,71,0.00,,,0.01,,2013-04-12 14:43:00,
2013-04-12 09:53:00,42.0,32.0,29.74,South,191,10.0,18.0,68,0.00,,,0.01,,2013-04-12 14:53:00,
2013-04-12 10:02:00,42.0,32.0,29.74,South,191,10.0,18.0,68,0.00,,,0.01,,2013-04-12 15:02:00,
2013-04-12 10:12:00,42.0,32.0,29.74,South,191,10.0,18.0,68,0.00,,,0.01,,2013-04-12 15:12:00,
2013-04-12 10:22:00,41.0,32.0,29.76,West,270,9.0,16.0,69,0.00,,,0.01,,2013-04-12 15:22:00,
2013-04-12 10:33:00,41.0,32.0,29.76,West,270,9.0,16.0,69,0.00,,,0.01,,2013-04-12 15:33:00,
2013-04-12 10:43:00,41.0,32.0,29.76,West,270,9.0,16.0,69,0.00,,,0.01,,2013-04-12 15:43:00,
2013-04-12 10:53:00,41.0,33.0,29.76,West,270,7.0,14.0,74,0.00,,,0.01,,2013-04-12 15:53:00,
2013-04-12 11:03:00,41.0,33.0,29.76,West,270,7.0,14.0,74,0.00,,,0.01,,2013-04-12 16:03:00,
2013-04-12 11:13:00,41.0,33.0,29.76,West,270,7.0,14.0,74,0.00,,,0.01,,2013-04-12 16:13:00,
2013-04-12 11:23:00,42.0,32.0,29.78,SW,222,7.0,15.0,68,0.00,,,0.01,,2013-04-12 16:23:00,
2013-04-12 11:33:00,42.0,32.0,29.78,SW,222,7.0,15.0,68,0.00,,,0.01,,2013-04-12 16:33:00,
2013-04-12 11:43:00,42.0,32.0,29.78,SW,222,7.0,15.0,68,0.00,,,0.01,,2013-04-12 16:43:00,
2013-04-12 11:53:00,43.0,33.0,29.78,West,273,9.0,21.0,68,0.00,,,0.01,,2013-04-12 16:53:00,
2013-04-12 12:03:00,43.0,33.0,29.78,West,273,9.0,21.0,68,0.00,,,0.01,,2013-04-12 17:03:00,
2013-04-12 12:12:00,43.0,33.0,29.78,West,273,9.0,21.0,68,0.00,,,0.01,,2013-04-12 17:12:00,
2013-04-12 12:23:00,43.0,32.0,29.79,WSW,252,8.0,19.0,64,0.00,,,0.01,,2013-04-12 17:23:00,
2013-04-12 12:33:00,43.0,32.0,29.79,WSW,252,8.0,19.0,64,0.00,,,0.01,,2013-04-12 17:33:00,
2013-04-12 12:47:00,43.0,32.0,29.79,WSW,252,8.0,19.0,64,0.00,,,0.01,,2013-04-12 17:47:00,
2013-04-12 13:09:00,43.0,33.0,29.80,WSW,252,8.0,13.0,67,0.00,,,0.01,,2013-04-12 18:09:00,
2013-04-12 13:18:00,43.0,33.0,29.80,WSW,252,8.0,13.0,67,0.00,,,0.01,,2013-04-12 18:18:00,
2013-04-12 14:26:00,43.0,34.0,29.83,SSW,210,9.0,17.0,69,0.00,,,0.00,,2013-04-12 19:26:00,
2013-04-12 14:27:00,43.0,33.0,29.83,SW,221,12.0,19.0,68,0.00,,,0.00,,2013-04-12 19:27:00,
2013-04-12 14:32:00,43.0,33.0,29.83,SW,221,12.0,19.0,68,0.00,,,0.00,,2013-04-12 19:32:00,
2013-04-12 14:43:00,43.0,33.0,29.83,SW,221,12.0,19.0,68,0.00,,,0.00,,2013-04-12 19:43:00,
2013-04-12 14:53:00,43.0,34.0,29.85,WSW,243,6.0,15.0,70,0.00,,,0.00,,2013-04-12 19:53:00,
2013-04-12 15:02:00,43.0,34.0,29.85,WSW,243,6.0,15.0,70,0.00,,,0.00,,2013-04-12 20:02:00,
2013-04-12 15:12:00,43.0,34.0,29.85,WSW,243,6.0,15.0,70,0.00,,,0.00,,2013-04-12 20:12:00,
2013-04-12 15:22:00,43.0,34.0,29.85,WSW,255,7.0,18.0,71,0.00,,,0.00,,2013-04-12 20:22:00,
2013-04-12 15:32:00,43.0,34.0,29.85,WSW,255,7.0,18.0,71,0.00,,,0.00,,2013-04-12 20:32:00,
2013-04-12 15:43:00,43.0,34.0,29.85,WSW,255,7.0,18.0,71,0.00,,,0.00,,2013-04-12 20:43:00,
2013-04-12 15:52:00,43.0,35.0,29.87,WSW,246,5.0,14.0,72,0.00,,,0.00,,2013-04-12 20:52:00,
2013-04-12 16:02:00,43.0,35.0,29.87,WSW,246,5.0,14.0,72,0.00,,,0.00,,2013-04-12 21:02:00,
2013-04-12 16:12:00,43.0,35.0,29.87,WSW,246,5.0,14.0,72,0.00,,,0.00,,2013-04-12 21:12:00,
2013-04-12 16:22:00,43.0,34.0,29.88,WSW,245,7.0,14.0,71,0.00,,,0.00,,2013-04-12 21:22:00,
2013-04-12 16:32:00,43.0,34.0,29.88,WSW,245,7.0,14.0,71,0.00,,,0.00,,2013-04-12 21:32:00,
2013-04-12 16:43:00,43.0,34.0,29.88,WSW,245,7.0,14.0,71,0.00,,,0.00,,2013-04-12 21:43:00,
2013-04-12 16:53:00,43.0,34.0,29.88,West,274,7.0,16.0,71,0.00,,,0.00,,2013-04-12 21:53:00,
2013-04-12 17:02:00,43.0,34.0,29.88,West,274,7.0,16.0,71,0.00,,,0.00,,2013-04-12 22:02:00,
2013-04-12 17:13:00,43.0,34.0,29.88,West,274,7.0,16.0,71,0.00,,,0.00,,2013-04-12 22:13:00,
2013-04-12 17:22:00,43.0,34.0,29.90,West,266,8.0,14.0,71,0.00,,,0.00,,2013-04-12 22:22:00,
2013-04-12 17:32:00,43.0,34.0,29.90,West,266,8.0,14.0,71,0.00,,,0.00,,2013-04-12 22:32:00,
2013-04-12 17:43:00,43.0,34.0,29.90,West,266,8.0,14.0,71,0.00,,,0.00,,2013-04-12 22:43:00,
2013-04-12 17:52:00,42.0,34.0,29.91,WSW,237,7.0,12.0,72,0.00,,,0.00,,2013-04-12 22:52:00,
2013-04-12 18:03:00,42.0,34.0,29.91,WSW,237,7.0,12.0,72,0.00,,,0.00,,2013-04-12 23:03:00,
2013-04-12 18:12:00,42.0,34.0,29.91,WNW,293,4.0,11.0,74,0.00,,,0.00,,2013-04-12 23:12:00,
2013-04-12 18:22:00,42.0,34.0,29.91,WNW,293,4.0,11.0,74,0.00,,,0.00,,2013-04-12 23:22:00,
2013-04-12 18:32:00,42.0,34.0,29.91,WNW,293,4.0,11.0,74,0.00,,,0.00,,2013-04-12 23:32:00,
2013-04-12 18:42:00,42.0,34.0,29.91,WNW,293,4.0,11.0,74,0.00,,,0.00,,2013-04-12 23:42:00,
2013-04-12 18:52:00,42.0,34.0,29.92,WSW,256,4.0,11.0,74,0.00,,,0.00,,2013-04-12 23:52:00,
2013-04-12 19:02:00,42.0,34.0,29.92,WSW,256,4.0,11.0,74,0.00,,,0.00,,2013-04-13 00:02:00,
2013-04-12 19:12:00,42.0,34.0,29.92,WSW,256,4.0,11.0,74,0.00,,,0.00,,2013-04-13 00:12:00,
2013-04-12 19:22:00,42.0,34.0,29.92,West,259,3.0,10.0,74,0.00,,,0.00,,2013-04-13 00:22:00,
2013-04-12 19:32:00,42.0,34.0,29.92,West,259,3.0,10.0,74,0.00,,,0.00,,2013-04-13 00:32:00,
2013-04-12 19:42:00,42.0,34.0,29.92,West,259,3.0,10.0,74,0.00,,,0.00,,2013-04-13 00:42:00,
2013-04-12 19:52:00,42.0,34.0,29.92,SW,224,5.0,8.0,74,0.00,,,0.00,,2013-04-13 00:52:00,
2013-04-12 20:02:00,42.0,34.0,29.92,SW,224,5.0,8.0,74,0.00,,,0.00,,2013-04-13 01:02:00,
2013-04-12 20:13:00,42.0,34.0,29.92,SW,224,5.0,8.0,74,0.00,,,0.00,,2013-04-13 01:13:00,
2013-04-12 20:22:00,42.0,34.0,29.92,SW,224,5.0,8.0,74,0.00,,,0.00,,2013-04-13 01:22:00,
2013-04-12 20:32:00,42.0,34.0,29.92,SW,224,5.0,8.0,74,0.00,,,0.00,,2013-04-13 01:32:00,
2013-04-12 20:52:00,41.0,34.0,29.93,SW,221,2.0,8.0,76,0.00,,,0.00,,2013-04-13 01:52:00,
2013-04-12 21:02:00,41.0,34.0,29.93,SW,221,2.0,8.0,76,0.00,,,0.00,,2013-04-13 02:02:00,
2013-04-12 21:12:00,41.0,34.0,29.93,SW,221,2.0,8.0,76,0.00,,,0.00,,2013-04-13 02:12:00,
2013-04-12 21:22:00,41.0,34.0,29.94,West,265,3.0,7.0,76,0.00,,,0.00,,2013-04-13 02:22:00,
2013-04-12 21:32:00,41.0,34.0,29.94,West,265,3.0,7.0,76,0.00,,,0.00,,2013-04-13 02:32:00,
2013-04-12 21:43:00,41.0,34.0,29.94,West,265,3.0,7.0,76,0.00,,,0.00,,2013-04-13 02:43:00,
2013-04-12 21:53:00,41.0,34.0,29.94,SW,229,4.0,8.0,76,0.00,,,0.00,,2013-04-13 02:53:00,
2013-04-12 22:02:00,41.0,34.0,29.94,SW,229,4.0,8.0,76,0.00,,,0.00,,2013-04-13 03:02:00,
2013-04-12 22:12:00,41.0,34.0,29.94,SW,229,4.0,8.0,76,0.00,,,0.00,,2013-04-13 03:12:00,
2013-04-12 22:22:00,41.0,34.0,29.95,WSW,245,3.0,7.0,75,0.00,,,0.00,,2013-04-13 03:22:00,
2013-04-12 22:33:00,41.0,34.0,29.95,WSW,245,3.0,7.0,75,0.00,,,0.00,,2013-04-13 03:33:00,
2013-04-12 22:43:00,41.0,34.0,29.95,WSW,245,3.0,7.0,75,0.00,,,0.00,,2013-04-13 03:43:00,
2013-04-12 22:53:00,41.0,33.0,29.96,SW,235,5.0,13.0,74,0.00,,,0.00,,2013-04-13 03:53:00,
2013-04-12 23:03:00,41.0,33.0,29.96,SW,235,5.0,13.0,74,0.00,,,0.00,,2013-04-13 04:03:00,
2013-04-12 23:12:00,41.0,33.0,29.96,SW,235,5.0,13.0,74,0.00,,,0.00,,2013-04-13 04:12:00,
2013-04-12 23:23:00,41.0,33.0,29.96,SW,216,4.0,9.0,74,0.00,,,0.00,,2013-04-13 04:23:00,
2013-04-12 23:33:00,41.0,33.0,29.96,SW,216,4.0,9.0,74,0.00,,,0.00,,2013-04-13 04:33:00,
2013-04-12 23:42:00,41.0,33.0,29.96,SW,216,4.0,9.0,74,0.00,,,0.00,,2013-04-13 04:42:00,
2013-04-12 23:53:00,41.0,34.0,29.96,West,280,4.0,11.0,75,0.00,,,0.00,,2013-04-13 04:53:00,